TimeCDT,TemperatureF,Dew PointF,Humidity,Sea Level PressureIn,VisibilityMPH,Wind Direction,Wind SpeedMPH,Gust SpeedMPH,PrecipitationIn,Events,Conditions,WindDirDegrees,DateUTC
12:53 AM,48.9,39.0,69,30.25,10.0,NNE,3.5,-,N/A,,Clear,30,2013-04-21 05:53:00
1:53 AM,48.9,39.0,69,30.23,10.0,Calm,Calm,-,N/A,,Clear,0,2013-04-21 06:53:00
2:53 AM,46.0,39.0,76,30.23,10.0,Calm,Calm,-,N/A,,Clear,0,2013-04-21 07:53:00
3:53 AM,46.0,39.0,76,30.24,10.0,Calm,Calm,-,N/A,,Clear,0,2013-04-21 08:53:00
4:53 AM,45.0,39.0,80,30.23,10.0,NNE,3.5,-,N/A,,Clear,30,2013-04-21 09:53:00
5:53 AM,44.1,37.9,79,30.25,10.0,Calm,Calm,-,N/A,,Clear,0,2013-04-21 10:53:00
6:53 AM,46.0,39.0,76,30.26,10.0,NE,4.6,-,N/A,,Clear,40,2013-04-21 11:53:00
7:53 AM,51.1,41.0,68,30.28,10.0,NE,4.6,-,N/A,,Clear,50,2013-04-21 12:53:00
8:53 AM,57.9,41.0,53,30.27,10.0,ENE,8.1,-,N/A,,Clear,70,2013-04-21 13:53:00
9:53 AM,62.1,39.9,44,30.28,10.0,ENE,5.8,-,N/A,,Clear,70,2013-04-21 14:53:00
10:53 AM,66.9,41.0,39,30.27,10.0,East,8.1,17.3,N/A,,Clear,80,2013-04-21 15:53:00
11:53 AM,69.1,42.1,38,30.26,10.0,East,10.4,20.7,N/A,,Clear,90,2013-04-21 16:53:00
12:53 PM,70.0,43.0,38,30.23,10.0,ENE,8.1,-,N/A,,Clear,70,2013-04-21 17:53:00
1:53 PM,71.1,43.0,36,30.21,10.0,East,4.6,-,N/A,,Clear,90,2013-04-21 18:53:00
2:53 PM,73.0,43.0,34,30.21,10.0,ESE,8.1,16.1,N/A,,Clear,110,2013-04-21 19:53:00
3:53 PM,73.9,43.0,33,30.17,10.0,SE,9.2,-,N/A,,Clear,130,2013-04-21 20:53:00
4:53 PM,73.0,44.1,35,30.17,10.0,East,11.5,-,N/A,,Clear,100,2013-04-21 21:53:00
5:53 PM,73.0,41.0,31,30.17,10.0,East,10.4,-,N/A,,Clear,100,2013-04-21 22:53:00
6:53 PM,68.0,45.0,43,30.18,10.0,ESE,5.8,-,N/A,,Clear,110,2013-04-21 23:53:00
7:53 PM,63.0,45.0,52,30.19,10.0,East,4.6,-,N/A,,Clear,80,2013-04-22 00:53:00
8:53 PM,61.0,44.1,54,30.20,10.0,East,3.5,-,N/A,,Clear,90,2013-04-22 01:53:00
9:53 PM,59.0,45.0,60,30.21,10.0,East,4.6,-,N/A,,Clear,80,2013-04-22 02:53:00
10:53 PM,55.9,44.1,64,30.20,10.0,East,4.6,-,N/A,,Clear,80,2013-04-22 03:53:00
11:53 PM,57.0,43.0,59,30.20,10.0,ENE,4.6,-,N/A,,Clear,60,2013-04-22 04:53:00